VOLGA R/B (44798 NORAD) Tracking and Keplerian Element Data

This shows tracking and keplerian element data for the satellite.

Feedback or suggestion? Click here.




ElementValue
Catalog44798
NameVOLGA R/B
Epoch Orbit4
Epoch Day330.21844354
Epoch Year2019
RAAN29.908
Inclination97.9005
Eccentricity0.0352394
Argument of Perigee319.9069
Mean Anonmoly131.1178
Mean Motion14.84802431
Decay Rate-0.01109826
L11 44798U 19079B 19330.21844354 -.01109826 00000-0 -44412-1 0 9990
L22 44798 97.9005 29.9080 0352394 319.9069 131.1178 14.84802431 46

Live tracking and technical data element details for VOLGA R/B (NORAD 44798). VOLGA R/B can be tracked NOW for your location showing map with azimuth and elevation plus other details from your city location.

Track the satellite on the map from your city or location and see movement details for azimuth, elevation, latitude, longitude, range, height, and movement on the map or in text.







IsCatalogInMostPopularTable: catalog: 44798, numindb: 34
Update: records affected: 1



GetName: 44798 VOLGA R/B

Hit Count: updated at: Sun, 05 Apr 2020 18:53:14 GMT